STARLINK-35768, 66832

Orbit data source: Space-Track

STARLINK-35768, 66832 is a payload satellite owned by SpaceX/Seattle (US) in LEO that was launched on Tue, 02 Dec 2025 UTC via an FALCON 9 launch vehicle from the Air Force Western Test Range (AFWTR). Payload-class satellites include a variety of spacecraft equipped with specific instruments for various scientific and technological missions. These include communications satellites like Starlink; space stations such as the ISS; scientific satellites like the Hubble; Earth observation satellites from companies like Planet Labs, Umbra, and HawkEye 360; GPS; miniature CubeSats for education and research; and military/defense satellites.

Loading next visibility...
Identifier
66832, 2025-280M
Orbit
LEO
Country
Flag of USUS
Related business
Manufacturer
SpaceX/Seattle
Mission
Operational Commercial Communications
Bus & Motor
STARLINK V2MO, Unknown motor
Mass
575 kg wet, ~530 kg dry
Launch date (UTC)
2025-12-02 (7 months ago)
Launch vehicle
FALCON 9
Launch site
Air Force Western Test Range (AFWTR)
Object type
Payload
Rocket body
Debris
Shape & HBR
Box + 2 Pan, 17.7 m
Radar Cross Section
36.964 m², Large (>1 m²)

Expand to show TLE details & history
Last TLE update: 21 hours ago

TLE from 21 hours ago
0 STARLINK-35768
1 66832U 25280M   26170.96149352  .00002953  00000-0  25510-3 0  9992
2 66832  70.0012  76.6594 0002904 267.8674  92.2153 14.98338772 31399
Epoch: 2026-06-19T23:04Z
TLE epoch observation values (Epoch: 2026-06-19T23:04:33.040Z)
Latitude
0.00004°
Longitude
-177.66121°
Altitude
574.531 km
Speed
7.574 km/s
True Right ascension
05h 06m 38s
True Declination
0° 00' 00"
Sunlit
Object was in daylight at epoch
Visualization orbit readout
Latitude
Unknown
Longitude
Unknown
Altitude
Unknown
Speed
Unknown
Apparent Right ascension
Unknown
Apparent Declination
Unknown
Sunlit
N/A
Visualization observer readout
Local Sidereal Time
07:13:08
Azimuth
Unknown
Elevation
Unknown
Doppler factor
Unknown
Orbital elements
Apogee altitude
571.995 km
Perigee altitude
567.959 km
Semi-major axis
6,948.114 km
Eccentricity
0.00029
Inclination
70.0012°
RAAN
76.6594°
Arg. of periapsis
267.8674°
True anomaly
92.24855°
Mean anomaly
92.2153°
Eccentric anomaly
92.23193°
Mean motion
3.74751 °/min
Orbital period
96.06 mins
BSTAR
0.0002551
Loading maneuver chart data...
Computing Atmospheric mass density...
Loading historical data...
Loading historical data...
Loading historical data...
Loading historical data...
Loading historical data...
Loading historical data...
Loading historical data...

Documentation

Showing up to 5 results
|